Welcome to the New NWS' Forecast!
Most changes are behind the scenes, but click here for differences you might notice.
Latest weather observations around

Santa Barbara, Santa Barbara Municipal Airport (KSBA)

Using English Units (Switch to International System of Units)
Date/ Time (PST) Wind (mph) Vis. (mi) Weather Sky Cond. Temp (°F) Rel. Humidity Wind Chill (°F) Heat Index (°F) Pressure Precip. (in)
Air Dwpt 6 hour Altimeter (inHg) Sea level (inHg) 1 hr 3 hr 6 hr
Max Min
Nov 19 11:53 SE 8 6 Haze SCT035 65 56     73%     30.03 30.03      
Nov 19 10:53 E 7 6 Haze CLR 65 55     70%     30.05 30.05      
Nov 19 09:53 ENE 6 6 Haze CLR 65 52     63%     30.06 30.06      
Nov 19 08:53 Calm 7 Partly Cloudy SCT019 57 47     69%     30.05 30.05      
Nov 19 07:53 Calm 9 Partly Cloudy SCT019 51 44     77%     30.04 30.04      
Nov 19 06:53 Calm 8 Clear CLR 47 43     86%     30.02 30.02      
Nov 19 05:53 Calm 9 Clear CLR 48 44     86%     30.01 30.01      
Nov 19 04:53 NE 3 10 Clear CLR 48 43     83% 47   30 29.99      
Nov 19 03:53 Calm 9 Clear CLR 47 43     86%     30.01 30.01      
Nov 19 02:53 Calm 8 Clear CLR 48 45     89%     30.01 30.01      
Nov 19 01:53 Calm 8 Clear CLR 48 46     93%     30.02 30.01      
Nov 19 00:53 Calm 7 Clear CLR 48 46     93%     30.01 30.01      
Nov 18 23:53 Calm 6 Fog/Mist CLR 49 47     93%     30.02 30.02      
Nov 18 22:53 NE 3 6 Fog/Mist CLR 49 47     93% 48   30.03 30.03      
Nov 18 21:53 Calm 5 Haze CLR 50 48     93%     30.03 30.03      
Nov 18 20:53 NE 3 5 Haze CLR 52 49     89%     30.03 30.03      
Nov 18 19:53 Calm 5 Haze CLR 53 51     93%     30.02 30.02      
Nov 18 18:53 Calm 6 Haze CLR 56 52     87%     30.01 30.01      
Nov 18 17:53 WNW 5 5 Haze CLR 57 53     87%     30 30      
Nov 18 16:53 W 6 5 Haze CLR 60 53     78%     29.99 29.99      
Nov 18 15:53 WSW 7 6 Haze CLR 64 54     70%     29.98 29.98      
Nov 18 14:53 WSW 8 5 Haze CLR 64 55     73%     30 30      
Nov 18 13:53 WSW 8 6 Haze CLR 67 52     59%     30.01 30.01      
Nov 18 12:53 S 5 6 Haze CLR 66 53     63%     30.02 30.01      
Nov 18 11:53 WSW 5 5 Haze CLR 65 55     70%     30.05 30.05      
Nov 18 10:53 WSW 6 5 Haze CLR 65 55     70%     30.08 30.08      
Nov 18 09:53 SSE 5 5 Haze CLR 64 55     73%     30.09 30.09      
Nov 18 08:53 Calm 6 Haze CLR 60 53     78%     30.09 30.09      
Nov 18 07:58 Calm 6 Haze CLR 52 50     93%     30.07        
Nov 18 07:53 Calm 5 Fog/Mist CLR 52 50     93%     30.07 30.07      
Nov 18 06:53 Calm 6 Fog/Mist CLR 49 48     97%     30.07 30.07      
Nov 18 05:53 Calm 6 Fog/Mist CLR 50 48     93%     30.07 30.07      
Nov 18 04:53 Calm 4 Fog/Mist CLR 49 47     93%     30.06 30.06      
Nov 18 03:53 ENE 3 4 Fog/Mist CLR 51 49     92%     30.05        
Nov 18 03:37 NE 3 3 Fog/Mist CLR 50 48     93%     30.05        
Nov 18 03:29 Calm 1.75 Fog/Mist CLR 50 49     96%     30.05        
Nov 18 02:53 Calm 5 Fog/Mist CLR 53 50     89%     30.05 30.04      
Nov 18 02:00 Calm 5 Fog/Mist SCT013 53 51     93%     30.05        
Nov 18 01:53 Calm 5 Fog/Mist BKN013 53 51     93%     30.05 30.05      
Nov 18 00:53 Calm 5 Fog/Mist OVC014 52 51     97%     30.05 30.05      
Nov 18 00:38 Calm 5 Fog/Mist BKN014 52 51     97%     30.05        
Nov 17 23:53 Calm 5 Fog/Mist FEW014 51 50     96%     30.04 30.04      
Nov 17 22:53 Calm 5 Fog/Mist CLR 51 50     96%     30.04 30.04      
Nov 17 21:53 Calm 5 Fog/Mist CLR 53 52     96%     30.05 30.04      
Nov 17 20:53 Calm 6 Fog/Mist CLR 56 54     93%     30.03 30.03      
Nov 17 19:53 Calm 5 Fog/Mist CLR 58 55     90%     30.02 30.02      
Nov 17 18:53 Calm 5 Fog/Mist CLR 59 55     87%     30.01 30.01      
Nov 17 17:53 W 3 6 Fog/Mist CLR 59 55     87%     30 30      
Nov 17 16:53 W 5 5 Haze CLR 62 56     80%     30 30      
Nov 17 15:53 WSW 6 5 Haze CLR 64 57     78%     30 30      
Nov 17 14:53 SSW 7 6 Haze CLR 66 56     70%     30 30      
Nov 17 13:53 S 6 7 Clear CLR 67 50     55%     30 30      
Nov 17 12:53 SSE 6 5 Haze CLR 65 56     73%     30.02 30.02      
Nov 17 11:53 S 8 5 Haze CLR 65 56     73%     30.03 30.03      
Nov 17 10:53 SSE 8 6 Haze CLR 65 55     70%     30.06 30.05      
Nov 17 09:53 SE 8 6 Haze BKN018 65 55     70%     30.07 30.06      
Nov 17 08:53 NE 6 5 Haze BKN018 62 55     78%     30.06 30.06      
Nov 17 07:53 NE 6 5 Haze BKN014 60 55     83%     30.04 30.03      
Nov 17 06:53 ENE 3 5 Fog/Mist BKN014 55 54     96%     30.02 30.01      
Nov 17 06:43 E 3 5 Fog/Mist SCT013 54 54     100%     30.01        
Nov 17 05:53 NE 6 6 Fog/Mist OVC010 54 52     93%     30 30      
Nov 17 05:22 NNE 3 8 Cloudy OVC010 53 49     86%     30.01        
Nov 17 04:53 NE 5 8 Cloudy OVC008 50 48     93%     30 30      
Nov 17 04:09 Calm 6 Fog/Mist OVC009 49 48     97%     29.99        
Nov 17 03:53 ENE 3 4 Fog/Mist BKN010 48 48     100% 47   30        
Nov 17 03:46 Calm 3 Fog/Mist SCT008 48 47     96%     30        
Nov 17 03:42 Calm 1.5 Fog/Mist SCT008 47 47     100%     30        
Nov 17 03:34 Calm 0.5 Fog VV008 47 47     100%     30        
Nov 17 03:20 Calm 0.25 Fog VV008 48 48     100%     30        
Nov 17 03:12 Calm 0.75 Fog/Mist   46 46     100%     30        
Nov 17 03:05 Calm 3 Fog/Mist   48 47     96%     29.99        
Nov 17 03:02 NNE 3 1 Fog/Mist   48 48     100% 47   29.99        
Nov 17 02:53 Calm 0.25 Fog   49 49     100%     30 29.99      
Nov 17 02:42 NNE 3 0.25 Fog   50 50     100%     30        
Nov 17 02:35 Calm 0.5 Fog SCT002 BKN006 49 48     97%     30        
Nov 17 01:53 ENE 3 8 Cloudy BKN002 OVC008 50 47     89%     30 29.99      
Nov 17 00:53 ENE 3 8 Cloudy OVC007 51 47     86%     29.99 29.99      
Nov 17 00:05 Calm 5 Fog/Mist BKN007 46 45     96%     29.98        
Nov 16 23:53 Calm 6 Fog/Mist FEW007 49 48     97%     29.98 29.98      
Nov 16 22:53 Calm 7 Clear CLR 50 48     93%     29.98 29.98      
Nov 16 21:53 Calm 7 Clear CLR 51 49     92%     29.99 29.98      
Nov 16 20:53 Calm 7 Clear CLR 51 50     96%     29.98 29.98      
Nov 16 19:53 Calm 7 Clear CLR 54 51     90%     29.97 29.97      
Nov 16 18:53 Calm 6 Fog/Mist and Smoke CLR 57 54     89%     29.97 29.97      
Nov 16 17:53 Calm 6 Fog/Mist and Smoke CLR 59 57     93%     29.96 29.96      
Nov 16 16:53 W 5 6 Haze and Smoke CLR 62 56     80%     29.96        
Nov 16 15:53 S 3 8 Clear CLR 66 58     75%     29.95 29.95      
Nov 16 14:53 3 10 Clear CLR 69 55     61%     29.95 29.95      
Nov 16 13:53 SW 6 10 Clear CLR 69 55     61%     29.96 29.96      
Nov 16 12:53 5 10 Clear CLR 69 54     59%     29.97 29.97      
Nov 16 11:53 S 7 10 Clear CLR 67 52     59%     29.99 29.98      
Nov 16 10:53 SSE 7 10 Clear CLR 68 47     47%     30.01 30.01      
Nov 16 09:53 SE 6 10 Clear   67 44     44%     30.02 30.02      
Nov 16 08:53 Calm 10 Clear CLR 64 38     38%     30.02 30.02      
Nov 16 07:53 Calm 9 Clear CLR 55 38     52%     30.01 30.01      
Nov 16 06:53 ENE 3 10 Clear CLR 46 36     68% 45   29.99 29.99      
Nov 16 05:53 Calm 10 Clear CLR 47 34     60%     29.98 29.98      
Nov 16 04:53 Calm 10 Clear CLR 46 36     68%     29.98 29.97      
Nov 16 03:53 Calm 10 Clear   47 37     68%     29.97 29.97      
Nov 16 02:53 Calm 10 Clear CLR 47 37     68%     29.98 29.98      
Nov 16 01:53 Calm 10 Clear CLR 48 38     68%     30 29.99      
Nov 16 00:53 Calm 10 Clear CLR 48 40     73%     29.99 29.98      
Nov 15 23:53 ENE 3 10 Clear CLR 48 39     71% 47   29.99 29.99      
Nov 15 22:53 Calm 10 Clear CLR 50 41     71%     30 30      
Nov 15 21:53 Calm 10 Clear CLR 52 39     61%     30.01 30.01      
Nov 15 20:53 Calm 10 Clear CLR 52 38     59%     30.01 30.01      
Nov 15 19:53 NNE 3 10 Clear CLR 56 39     53%     30.01 30.01      
Nov 15 18:53 NE 5 10 Clear CLR 58 42     55%     30.01 30.01      
Nov 15 17:53 NNW 5 10 Clear CLR 61 49     64%     30.01        
Nov 15 16:53 WNW 6 10 Clear CLR 63 53     70%     30 30      
Nov 15 15:53 W 10 10 Clear CLR 67 47     49%     30 29.99      
Nov 15 14:53 W 10 10 Clear CLR 76 30     18%   74 30 30      
Nov 15 13:53 WSW 10 10 Clear CLR 73 21     14%   71 30.01 30.01      
Nov 15 12:53 WSW 7 10 Clear CLR 76 19     12%   74 30.04 30.03      
Nov 15 11:53 W 8 10 Clear CLR 77 30     18%   75 30.08 30.07      
Nov 15 10:53 SSW 6 10 Mostly Cloudy BKN200 75 26     16%   73 30.1 30.1      
Nov 15 09:53 SSE 8 10 Clear CLR 70 45     41%     30.11 30.11      
Nov 15 08:53 Calm 10 Clear CLR 66 36     33%     30.12 30.11      
Nov 15 07:53 Calm 10 Clear CLR 54 33     45%     30.11 30.11      
Nov 15 06:53 Calm 10 Clear CLR 44 30     58%     30.09 30.08      
Nov 15 05:53 Calm 10 Clear CLR 43 30     60%     30.09 30.09      
Nov 15 04:53 Calm 10 Clear CLR 44 31     60%     30.09 30.08      
Nov 15 03:53 Calm 10 Clear CLR 45 31     58%     30.09 30.09      
Nov 15 02:53 Calm 10 Clear CLR 43 31     62%     30.09 30.09      
Nov 15 01:53 NW 3 10 Clear CLR 44 31     60% 43   30.11 30.1      
Nov 15 00:53 Calm 10 Clear CLR 45 32     60%     30.12 30.11      
Nov 14 23:53 Calm 10 Clear CLR 47 33     58%     30.13 30.13      
Nov 14 22:53 Calm 10 Clear CLR 46 32     58%     30.15 30.15      
Nov 14 21:53 Calm 10 Clear CLR 51 34     52%     30.14 30.14      
Nov 14 20:53 Calm 10 Clear CLR 52 35     52%     30.15 30.14      
Nov 14 19:53 Calm 10 Clear CLR 52 40     63%     30.15 30.15      
Nov 14 18:53 Calm 10 Clear CLR 55 43     64%     30.15 30.15      
Nov 14 17:53 WNW 3 10 Clear CLR 62 45     53%     30.15 30.15      
Nov 14 16:53 W 10 10 Clear CLR 65 46     50%     30.14 30.14      
Nov 14 15:53 W 9 10 Clear CLR 70 35     28%     30.14 30.14      
Nov 14 14:53 W 13 10 Clear CLR 71 35     27%   69 30.15 30.15      
Nov 14 13:53 WSW 11 10 Clear CLR 72 30     21%   70 30.16 30.16      
Nov 14 12:53 WSW 10 10 Clear CLR 73 30     20%   71 30.18 30.18      
Nov 14 11:53 WSW 8 10 Clear CLR 72 36     27%   70 30.22 30.21      
Nov 14 09:53 WSW 6 10 Clear CLR 70 34     26%     30.27 30.27      
Nov 14 08:53 Calm 10 Clear CLR 66 34     30%     30.28 30.27      
Nov 14 07:53 Calm 10 Clear CLR 54 28     37%     30.27 30.27      
Nov 14 06:53 Calm 10 Clear CLR 45 27     49%     30.26 30.26      
Nov 14 05:53 N 3 10 Clear CLR 45 30     56% 44   30.25 30.25      
Nov 14 04:53 Calm 10 Clear CLR 47 31     53%     30.24 30.24      
Nov 14 03:53 Calm 10 Clear CLR 50 32     50%     30.24 30.23      
Nov 14 02:53 N 3 10 Clear CLR 51 33     50%     30.24 30.24      
Nov 14 01:53 Calm 10 Clear CLR 50 32     50%     30.26 30.25      
Nov 14 00:53 ENE 3 10 Clear CLR 54 31     41%     30.26 30.26      
Nov 13 23:53 Calm 10 Clear CLR 51 31     46%     30.27 30.27      
Nov 13 22:53 Calm 10 Clear CLR 54 30     40%     30.28 30.28      
Nov 13 21:53 Calm 10 Clear CLR 53 31     43%     30.28 30.28      
Nov 13 20:53 Calm 10 Clear CLR 55 31     40%     30.28 30.28      
Nov 13 19:53 Calm 10 Clear CLR 53 31     43%     30.28 30.27      
Nov 13 18:53 Calm 10 Clear CLR 58 30     34%     30.28 30.28      
Nov 13 17:53 Calm 10 Clear CLR 61 29     30%     30.27 30.27      
Nov 13 16:53 Calm 10 Clear CLR 64 32     30%     30.27 30.27      
Nov 13 15:53 W 8 10 Clear CLR 69 19     15%     30.28 30.28      
Nov 13 14:53 W 8 10 Clear CLR 70 33     26%     30.28 30.28      
Nov 13 13:53 W 8 10 Clear CLR 72 27     19%   70 30.28 30.28      
Nov 13 12:53 WSW 11 10 Clear CLR 72 19     13%   69 30.31 30.3      
Nov 13 11:53 W 7 10 Clear CLR 71 33     25%   69 30.34 30.34      
Nov 13 10:53 SSW 9 10 Clear CLR 71 37     29%   69 30.37 30.37      
Nov 13 09:53 SW 7 10 Clear CLR 69 38     32%     30.37 30.36      
Nov 13 08:53 Calm 10 Clear CLR 66 32     28%     30.35 30.35      
Nov 13 07:53 Calm 9 Clear CLR 52 29     41%     30.35 30.35      
Nov 13 06:53 Calm 10 Clear CLR 43 29     57%     30.34 30.33      
Nov 13 05:53 NNE 3 10 Clear CLR 42 29     59% 40   30.33 30.32      
Nov 13 04:53 N 5 10 Clear CLR 43 29     57% 40   30.32 30.31      
Nov 13 03:53 ENE 3 10 Clear CLR 45 28     51% 44   30.31 30.31      
Nov 13 02:53 Calm 10 Clear CLR 44 28     53%     30.31 30.31      
Nov 13 01:53 Calm 10 Clear CLR 48 26     42%     30.32 30.31      
Nov 13 00:53 Calm 10 Clear CLR 47 28     48%     30.31 30.31      
Nov 12 23:53 Calm 10 Clear CLR 46 26     45%     30.31 30.31      
Nov 12 22:53 Calm 10 Clear CLR 49 27     42%     30.32 30.32      
Nov 12 21:53 Calm 10 Clear CLR 50 28     42%     30.31 30.31      
Nov 12 20:53 NW 3 10 Clear CLR 50 28     42%     30.3 30.3      
Nov 12 19:53 Calm 10 Clear CLR 55 28     35%     30.28 30.28      
Nov 12 18:53 Calm 10 Clear CLR 59 31     34%     30.27 30.27      
Nov 12 17:53 NW 5 10 Clear CLR 62 32     32%     30.25 30.25      
Nov 12 16:53 W 6 10 Clear CLR 65 33     30%     30.23 30.23      
Nov 12 15:53 W 7 10 Clear CLR 72 27     19%   70 30.23 30.23      
Nov 12 14:53 W 8 10 Clear CLR 74 19     12%   72 30.22 30.22      
Nov 12 13:53 W 7 10 Clear CLR 74        %     30.22 30.21      
Nov 12 12:53 6 10 Clear CLR 75 17     11%   73 30.21 30.21      
Nov 12 11:53 W 8 10 Clear CLR 73        %     30.22 30.22      
Nov 12 10:53 SW 5 10 Smoke CLR 71 31     23%   69 30.23 30.23      
Nov 12 09:53 WSW 3 10 Smoke CLR 68 36     31%     30.24 30.24      
Nov 12 08:53 WSW 3 10 Smoke CLR 66 36     33%     30.23 30.23      
Nov 12 07:53 Calm 10 Smoke CLR 50 32     50%     30.23 30.22      
Nov 12 06:53 Calm 10 Smoke CLR 42 29     59%     30.21 30.21      
Nov 12 05:53 Calm 10 Smoke CLR 42 30     62%     30.19 30.19      
Nov 12 04:53 NE 3 10 Smoke CLR 42 30     62% 40   30.18 30.18      
Nov 12 03:53 Calm 10 Smoke CLR 43 31     62%     30.17 30.17      
Nov 12 02:53 N 3 10 Smoke CLR 42 32     67% 40   30.17 30.17      
Nov 12 01:53 Calm 10 Smoke CLR 44 34     67%     30.17 30.16      
Nov 12 00:53 NE 3 10 Smoke CLR 45 34     65% 44   30.17 30.17      
Nov 11 23:53 Calm 10 Smoke CLR 47 34     60%     30.16 30.16      
Nov 11 22:53 Calm 10 Smoke CLR 46 34     63%     30.16 30.16      
Nov 11 21:53 Calm 10 Smoke CLR 50 33     52%     30.14 30.14      
Nov 11 20:53 Calm 10 Smoke CLR 50 32     50%     30.13 30.12      
Nov 11 19:53 Calm 10 Smoke CLR 54 34     47%     30.11 30.11      
Nov 11 18:53 Calm 10 Smoke CLR 53 36     52%     30.09 30.09      
Nov 11 17:53 Calm 10 Smoke CLR 60 34     37%     30.07 30.07      
Nov 11 16:53 W 5 10 Smoke CLR 67 34     29%     30.06 30.06      
Nov 11 15:53 WSW 5 10 Smoke CLR 71 33     25%   69 30.04 30.04      
Nov 11 14:53 S 3 10 Smoke CLR 73 27     18%   71 30.02 30.02      
Nov 11 13:53 SSW 6 10 Smoke CLR 74 25     16%   72 30.02 30.02      
Nov 11 12:53 SW 6 6 Haze and Smoke CLR 74 31     20%   72 30.02 30.02      
Nov 11 11:53 5 6 Haze and Smoke CLR 70 37     30%     30.03 30.03      
Nov 11 10:53 3 6 Haze and Smoke CLR 67 47     49%     30.05 30.05      
Nov 11 09:53 SSE 5 6 Haze CLR 65 51     61%     30.06 30.06      
Nov 11 08:53 Calm 8 Clear CLR 61 46     58%     30.06 30.05      
Nov 11 07:53 Calm 8 Clear CLR 51 44     77%     30.04 30.04      
Nov 11 06:53 Calm 9 Clear CLR 44 41     89%     30.01 30.01      
Nov 11 05:53 Calm 10 Clear CLR 45 38     76%     29.99 29.99      
Nov 11 04:53 Calm 10 Clear CLR 46 39     76%     29.98 29.97      
Nov 11 03:53 ENE 3 10 Clear CLR 49 37     63% 48   29.96 29.96      
Nov 11 02:53 ENE 3 10 Clear CLR 48 38     68% 47   29.96 29.96      
Nov 11 01:53 NE 5 10 Clear CLR 47 41     80% 45   29.95 29.95      
Nov 11 00:53 Calm 10 Clear CLR 48 44     86%     29.95 29.95      
Nov 10 23:53 Calm 10 Clear CLR 49 45     86%     29.95 29.95      
Nov 10 22:53 NE 3 10 Clear CLR 50 45     83%     29.95 29.94      
Nov 10 21:53 NNE 5 10 Clear CLR 51 47     86%     29.94 29.94      
Nov 10 20:53 NE 6 10 Clear CLR 53 48     83%     29.92 29.92      
Nov 10 19:53 ENE 6 10 Clear CLR 53 48     83%     29.91 29.91      
Nov 10 18:53 NE 3 10 Clear CLR 54 47     77%     29.91 29.91      
Nov 10 17:53 Calm 10 Clear CLR 60 54     80%     29.91 29.91      
Nov 10 16:53 Calm 10 Partly Cloudy SCT050 63 53     70%     29.9 29.9      
Nov 10 15:53 W 5 10 Partly Cloudy SCT050 67 52     59%     29.91 29.91      
Nov 10 14:53 WSW 9 10 Clear CLR 69 49     49%     29.91 29.91      
Nov 10 13:53 WSW 7 10 Clear CLR 71 47     42%   70 29.91 29.91      
Nov 10 12:53 WSW 7 10 Clear CLR 70 52     53%     29.93 29.92      
Nov 10 11:53 SSW 6 10 Clear CLR 70 44     39%     29.96 29.95      
Nov 10 10:53 3 10 Clear CLR 71        %     29.98 29.98      
Nov 10 09:53 S 5 10 Clear CLR 69 39     33%     29.99 29.98      
Nov 10 08:53 Calm 10 Clear CLR 65 23     20%     29.99 29.98      
Nov 10 07:53 Calm 10 Clear CLR 51 30     44%     29.98 29.98      
Notice The following observation data may not be complete
Nov 10 06:53 Calm 10 Clear CLR   29      %     29.97 29.97      
Nov 10 05:53 Calm 10 Clear CLR 42 28     57%     29.97 29.96      
Nov 10 04:53 Calm 10 Clear CLR 42 30     62%     29.96 29.96      
Nov 10 03:53 Calm 10 Clear CLR 41 30     65%     29.96 29.96      
Nov 10 02:53 ENE 3 10 Clear CLR 45 31     58% 44   29.97 29.97      
Nov 10 01:53 NE 5 10 Clear CLR 45 33     63% 43   29.99 29.98      
Nov 10 00:53 Calm 10 Clear CLR 45 33     63%     29.99 29.99      
Nov 09 23:53 ENE 3 10 Clear CLR 49 33     54% 48   30 29.99      
Nov 09 22:53 Calm 10 Clear CLR 47 33     58%     30.01 30.01      
May 15 11:53 S 8 10 Mostly Clear FEW040 63 53     70%     30.07 30.06      
May 15 01:53 Calm 10 Clear   52 47     83%     29.98 29.98      
May 14 16:53 W 15 10 Clear CLR 64 48     56%     29.96 29.95      
May 14 13:53   10 Clear CLR 66 50     56%     30 30      
May 12 22:53 W 8 10 Cloudy OVC042 58 53     84%     30.01 30.01      
May 12 00:53 Calm 10 Cloudy OVC019 57 51     81%     29.88 29.87      
May 11 17:53 W 7 10 Cloudy OVC018 58 51     78%     29.81 29.81      
May 11 08:53 SSW 6 8 Cloudy OVC026 59 53     81%     29.87 29.87      
Jun 11 20:53 WNW 13 10 Clear CLR 60 42     51%     29.93 29.93      
Jun 11 19:53 NNW 16 10 Clear CLR 63 41     45%     29.92 29.92      
Jun 10 01:53 E 6 10 Clear CLR 60 52     75%     29.86 29.86      
Jun 09 14:53   10 Partly Cloudy FEW004 SCT040 69 61     75%     29.91 29.91      
Jun 08 20:33 SE 11 10 Clear CLR 63 56     78%     29.9        
Jun 08 09:04 WSW 6 10 Partly Cloudy SCT030 64 56     75%     30.01        
Jun 08 04:53 Calm 10 Cloudy FEW010 OVC019 59 57     93%     29.99 29.98      
Jun 07 23:53 Calm 10 Cloudy OVC019 61 57     87%     29.98 29.97      
Jun 07 22:53 W 7 10 Cloudy OVC020 59 57     93%     29.98 29.98      
Jun 07 15:53 W 9 10 Cloudy OVC023 64 57     78%     29.95 29.95